DELTA 1 R/B(1), 10144

Orbit data source: Space-Track

DELTA 1 R/B(1), 10144 is space debris in LEO originally from a launch on Thu, 14 Jul 1977 UTC launched from the Air Force Eastern Test Range (AFETR). Debris objects in space refer to the collection of defunct objects orbiting the Earth. Examples of debris include non-operational satellites, rocket bodies, and fragments generated from explosions, collisions, or faulty payload assembly.

Loading next visibility...
Identifier
10144, 1977-065B
Orbit
LEO
Country
Flag of USUS
Related business
Manufacturer
MDAC-HB
Mission
Spacecraft
Bus & Motor
DELTA/TR-201, Unknown motor
Mass
845 kg wet, 845 kg dry
Launch date (UTC)
1977-07-14 (48 years ago)
Launch vehicle
Unknown
Launch site
Air Force Eastern Test Range (AFETR)
Object type
Payload
Rocket body
Debris
Shape & HBR
Unknown
Radar Cross Section
Large (>1 m²)

Expand to show TLE details & history
Last TLE update: 18 hours ago

TLE from 18 hours ago
0 DELTA 1 R/B(1)
1 10144U 77065B   25297.07298586  .00002407  00000-0  69422-3 0  9994
2 10144  29.0628  83.9253 0841705 197.8526 159.0664 13.25612563331543
Epoch: 2025-10-24T01:45Z
TLE epoch observation values (Epoch: 2025-10-24T01:45:05.978Z)
Latitude
-0.00001°
Longitude
24.92725°
Altitude
1,760.604 km
Speed
6.718 km/s
True Right ascension
05h 35m 42s
True Declination
0° 00' 00"
Sunlit
Object was in daylight at epoch
Visualization orbit readout
Latitude
Unknown
Longitude
Unknown
Altitude
Unknown
Speed
Unknown
Apparent Right ascension
Unknown
Apparent Declination
Unknown
Sunlit
N/A
Visualization observer readout
Local Sidereal Time
15:07:14
Azimuth
Unknown
Elevation
Unknown
Doppler factor
Unknown
Orbital elements
Apogee altitude
1,802.27 km
Perigee altitude
532.084 km
Semi-major axis
7,545.314 km
Eccentricity
0.08417
Inclination
29.0628°
RAAN
83.9253°
Arg. of periapsis
197.8526°
True anomaly
162.20167°
Mean anomaly
159.0664°
Eccentric anomaly
160.66326°
Mean motion
3.31152 °/min
Orbital period
108.71 mins
BSTAR
0.00069422
Loading maneuver chart data...
Computing Atmospheric mass density...
Loading historical data...
Loading historical data...
Loading historical data...
Loading historical data...
Loading historical data...
Loading historical data...
Loading historical data...

Documentation

Showing up to 5 results
|